Starlink 1465

operational
NORAD ID: 45731 Int'l Des: 2020-038 Owner: SPXS Country: US Constellation: starlink
LEOCIRCULARSTARLINK_TYPE

Über Starlink 1465

Beschreibung wird geladen...

Live-Position

3D-Globus wird geladen...

Nächste Überflüge

Höhenverlauf

Altitude vs Time

uPlot chart will show altitude changes over time

Zweizeiliger Elementsatz

1 45731U 20038B 25352.10839388 .00005635 00000-0 39666-3 0 9992
2 45731 53.0534 242.8502 0001552 86.2507 273.8659 15.06418768303895
Epoch: 18. Dez. 2025 • Age: 17 hours

Aktueller Status

Höhe 552.4 km
Geschwindigkeit 7.59 km/s
Subsatellitenpunkt -18.00°S, 162.41°W
Startdatum 13. Juni 2020
Alter 5.5 years
Typ internet

Technische Details

Klassifizierung Payload
Masse 260.00 kg
Trockenmasse 248.00 kg
Gesamtmasse 260.00 kg
Länge 0.20 m
Durchmesser 2.80 m
Spannweite 9.00 m
Form Box + pan
Hersteller SPXS
Bus-Typ Starlink
Phasenstatus In Orbit
Besitzer/Staat SPXS/US

Große Konstellationen

Loading constellations...